EW7199 Weather Reports


Display with metric or nautical units.
time (UTC)temp
F
wind
direction
speed
MPH
gust
MPH
rain 1hr
in
rain 24hr
in
rain mn
in
humidity
%
barometer
mb
20260903230408 82 277 2.0 3.0 0.00 0.00 0.00 56 1015.0
20260903225909 82 283 2.0 3.0 0.00 0.00 0.00 56 1015.1
20260903224910 82 286 2.0 3.0 0.00 0.00 0.00 56 1015.0
20260903224409 82 313 2.0 3.0 0.00 0.00 0.00 56 1015.0
20260903223409 82 273 3.0 3.0 0.00 0.00 0.00 56 1015.1
20260903222409 82 293 3.0 5.0 0.00 0.00 0.00 56 1015.1
20260903221910 82 299 2.0 5.0 0.00 0.00 0.00 57 1015.1
20260903221409 82 311 2.0 5.0 0.00 0.00 0.00 58 1015.1
20260903220409 82 270 2.0 3.0 0.00 0.00 0.00 58 1015.2
20260903215910 82 288 2.0 3.0 0.00 0.00 0.00 58 1015.2
20260903215410 82 304 3.0 6.0 0.00 0.00 0.00 58 1015.2
20260903214909 82 315 2.0 3.0 0.00 0.00 0.00 59 1015.1
20260903214409 82 297 2.0 3.0 0.00 0.00 0.00 60 1015.0
20260903213908 82 300 3.0 3.0 0.00 0.00 0.00 60 1015.1
20260903213408 82 281 1.0 3.0 0.00 0.00 0.00 61 1015.1
20260903212909 82 291 2.0 3.0 0.00 0.00 0.00 61 1015.1
20260903212409 82 278 2.0 3.0 0.00 0.00 0.00 62 1015.1
20260903211408 82 266 1.0 3.0 0.00 0.00 0.00 60 1015.1
20260903210910 82 287 2.0 3.0 0.00 0.00 0.00 60 1015.1
20260903205410 82 301 2.0 3.0 0.00 0.00 0.00 63 1015.2
20260903204909 82 289 2.0 3.0 0.00 0.00 0.00 63 1015.2
20260903203909 82 282 3.0 3.0 0.00 0.00 0.00 62 1015.2
20260903203410 82 251 2.0 6.0 0.00 0.00 0.00 61 1015.1
20260903202910 82 297 2.0 3.0 0.00 0.00 0.00 60 1015.1
20260903202409 82 286 1.0 3.0 0.00 0.00 0.00 60 1015.1
20260903201908 82 329 1.0 3.0 0.00 0.00 0.00 59 1015.1
20260903201410 82 301 1.0 3.0 0.00 0.00 0.00 59 1015.1
20260903200909 82 343 2.0 3.0 0.00 0.00 0.00 59 1015.1
20260903200409 82 286 2.0 3.0 0.00 0.00 0.00 59 1015.1
20260903195409 82 310 2.0 3.0 0.00 0.00 0.00 57 1015.0
20260903194909 83 311 2.0 3.0 0.00 0.00 0.00 57 1015.0
20260903194409 83 327 1.0 3.0 0.00 0.00 0.00 56 1015.0
20260903193909 83 323 2.0 3.0 0.00 0.00 0.00 55 1015.0
20260903193409 83 138 2.0 3.0 0.00 0.00 0.00 55 1015.0
20260903192408 83 39 2.0 3.0 0.00 0.00 0.00 53 1014.9
20260903191909 83 0 2.0 3.0 0.00 0.00 0.00 53 1014.9
20260903191410 84 340 2.0 3.0 0.00 0.00 0.00 52 1014.8
20260903190909 84 272 2.0 3.0 0.00 0.00 0.00 52 1014.7
20260903190409 84 351 2.0 3.0 0.00 0.00 0.00 51 1014.7
20260903185409 84 334 2.0 3.0 0.00 0.00 0.00 51 1014.6
20260903183910 85 339 1.0 3.0 0.00 0.00 0.00 50 1014.6
20260903183409 85 297 2.0 3.0 0.00 0.00 0.00 49 1014.5
20260903182909 85 346 2.0 3.0 0.00 0.00 0.00 49 1014.5
20260903182410 85 312 1.0 3.0 0.00 0.00 0.00 49 1014.4
20260903181909 85 71 2.0 3.0 0.00 0.00 0.00 49 1014.3
20260903181410 85 306 2.0 3.0 0.00 0.00 0.00 49 1014.2
20260903180410 86 102 2.0 3.0 0.00 0.00 0.00 47 1014.2
20260903175910 86 307 2.0 3.0 0.00 0.00 0.00 47 1014.2
20260903175409 86 10 2.0 3.0 0.00 0.00 0.00 47 1014.2
20260903174909 86 301 2.0 3.0 0.00 0.00 0.00 46 1014.2
20260903173909 87 284 2.0 5.0 0.00 0.00 0.00 45 1014.2
20260903173408 87 344 2.0 5.0 0.00 0.00 0.00 45 1014.1
20260903172909 87 312 2.0 5.0 0.00 0.00 0.00 44 1014.1
20260903172408 87 335 3.0 5.0 0.00 0.00 0.00 43 1014.0
20260903171908 88 322 2.0 5.0 0.00 0.00 0.00 43 1014.0
20260903171409 88 307 3.0 6.0 0.00 0.00 0.00 43 1013.9
20260903170410 89 84 2.0 3.0 0.00 0.00 0.00 42 1013.9
20260903165909 88 287 2.0 5.0 0.00 0.00 0.00 42 1013.9
20260903164409 89 312 3.0 5.0 0.00 0.00 0.00 39 1013.8
20260903163910 89 295 2.0 5.0 0.00 0.00 0.00 39 1013.8
20260903163409 89 301 3.0 6.0 0.00 0.00 0.00 38 1013.8
20260903162909 90 339 2.0 5.0 0.00 0.00 0.00 39 1013.7
20260903162409 90 295 2.0 14.0 0.00 0.00 0.00 38 1013.7
20260903161909 90 313 3.0 6.0 0.00 0.00 0.00 37 1013.7
20260903161409 90 354 3.0 7.0 0.00 0.00 0.00 36 1013.7
20260903160909 90 17 2.0 6.0 0.00 0.00 0.00 37 1013.7
20260903160408 90 311 2.0 5.0 0.00 0.00 0.00 36 1013.7
20260903155909 90 359 3.0 7.0 0.00 0.00 0.00 36 1013.6
20260903155410 91 321 3.0 7.0 0.00 0.00 0.00 36 1013.6
20260903154909 91 319 2.0 3.0 0.00 0.00 0.00 36 1013.5
20260903153909 91 291 3.0 6.0 0.00 0.00 0.00 35 1013.4
20260903153408 91 304 3.0 8.0 0.00 0.00 0.00 35 1013.4
20260903152910 91 326 3.0 7.0 0.00 0.00 0.00 35 1013.4
20260903152409 91 326 3.0 8.0 0.00 0.00 0.00 36 1013.3
20260903151908 91 308 3.0 8.0 0.00 0.00 0.00 37 1013.3
20260903151409 91 339 3.0 3.0 0.00 0.00 0.00 37 1013.4
20260903145408 91 351 4.0 7.0 0.00 0.00 0.00 37 1013.3
20260903144408 92 293 3.0 5.0 0.00 0.00 0.00 36 1013.3
20260903143408 92 316 3.0 7.0 0.00 0.00 0.00 36 1013.2
20260903142909 92 288 4.0 7.0 0.00 0.00 0.00 35 1013.2
20260903142409 92 309 3.0 9.0 0.00 0.00 0.00 35 1013.2
20260903141909 92 285 3.0 7.0 0.00 0.00 0.00 34 1013.2
20260903141409 93 295 2.0 5.0 0.00 0.00 0.00 34 1013.2
20260903140909 93 333 3.0 7.0 0.00 0.00 0.00 33 1013.2
20260903140409 93 322 3.0 6.0 0.00 0.00 0.00 34 1013.1
20260903135908 93 296 3.0 7.0 0.00 0.00 0.00 34 1013.1
20260903135410 93 302 3.0 6.0 0.00 0.00 0.00 33 1013.1
20260903134909 93 311 2.0 3.0 0.00 0.00 0.00 33 1013.2
20260903134409 93 316 2.0 5.0 0.00 0.00 0.00 34 1013.2
20260903133909 93 332 3.0 7.0 0.00 0.00 0.00 34 1013.3
20260903133409 93 322 3.0 7.0 0.00 0.00 0.00 33 1013.3
20260903132909 93 300 2.0 3.0 0.00 0.00 0.00 34 1013.3
20260903132408 92 296 3.0 3.0 0.00 0.00 0.00 35 1013.3
20260903131909 92 302 5.0 7.0 0.00 0.00 0.00 36 1013.4
20260903130908 92 304 4.0 8.0 0.00 0.00 0.00 35 1013.4
20260903130410 92 290 4.0 8.0 0.00 0.00 0.00 35 1013.5
20260903125908 92 295 4.0 6.0 0.00 0.00 0.00 35 1013.5
20260903125408 92 297 3.0 7.0 0.00 0.00 0.00 34 1013.4
20260903124908 93 321 2.0 5.0 0.00 0.00 0.00 34 1013.5
20260903124409 93 244 3.0 5.0 0.00 0.00 0.00 36 1013.5
20260903123909 92 291 2.0 5.0 0.00 0.00 0.00 35 1013.5
20260903123408 92 300 3.0 7.0 0.00 0.00 0.00 34 1013.6
20260903122409 93 346 3.0 13.0 0.00 0.00 0.00 34 1013.6
20260903121909 93 348 3.0 6.0 0.00 0.00 0.00 33 1013.6
20260903121408 93 312 3.0 6.0 0.00 0.00 0.00 32 1013.7
20260903120409 92 267 3.0 6.0 0.00 0.00 0.00 34 1013.7
20260903115909 92 257 2.0 5.0 0.00 0.00 0.00 33 1013.7
20260903115409 93 309 3.0 7.0 0.00 0.00 0.00 32 1013.8
20260903114908 93 324 3.0 6.0 0.00 0.00 0.00 31 1013.8
20260903114409 93 315 2.0 5.0 0.00 0.00 0.00 32 1013.8
20260903113910 93 288 3.0 6.0 0.00 0.00 0.00 32 1013.8
20260903113410 93 286 2.0 3.0 0.00 0.00 0.00 33 1013.9
20260903112909 93 316 2.0 3.0 0.00 0.00 0.00 32 1013.9
20260903111909 93 306 2.0 6.0 0.00 0.00 0.00 32 1014.0
20260903110909 92 311 3.0 8.0 0.00 0.00 0.00 32 1014.1
20260903110409 92 338 3.0 5.0 0.00 0.00 0.00 32 1014.2
20260903105909 92 293 3.0 5.0 0.00 0.00 0.00 31 1014.1
20260903105409 92 303 2.0 5.0 0.00 0.00 0.00 31 1014.2
20260903104908 92 287 2.0 5.0 0.00 0.00 0.00 31 1014.2
20260903104409 92 349 3.0 5.0 0.00 0.00 0.00 32 1014.3
20260903103408 92 293 2.0 3.0 0.00 0.00 0.00 35 1014.4
20260903102909 91 328 2.0 3.0 0.00 0.00 0.00 35 1014.4
20260903101910 91 259 2.0 3.0 0.00 0.00 0.00 40 1014.5
20260903101409 90 268 2.0 3.0 0.00 0.00 0.00 39 1014.5
20260903100412 89 230 3.0 3.0 0.00 0.00 0.00 44 1014.7
20260903095909 89 235 2.0 3.0 0.00 0.00 0.00 45 1014.7
20260903095409 88 179 1.0 2.0 0.00 0.00 0.00 43 1014.7
20260903094909 88 213 2.0 3.0 0.00 0.00 0.00 48 1014.8
20260903093909 88 182 2.0 3.0 0.00 0.00 0.00 48 1014.9
20260903093408 87 243 2.0 3.0 0.00 0.00 0.00 50 1014.9
20260903092908 87 219 2.0 5.0 0.00 0.00 0.00 47 1014.9
20260903092408 87 235 3.0 3.0 0.00 0.00 0.00 53 1015.0
20260903091909 87 217 2.0 3.0 0.00 0.00 0.00 53 1015.0
20260903090909 87 220 2.0 3.0 0.00 0.00 0.00 53 1015.1
20260903090409 86 229 2.0 3.0 0.00 0.00 0.00 54 1015.1
20260903085409 85 227 2.0 3.0 0.00 0.00 0.00 58 1015.1
20260903084908 85 217 2.0 3.0 0.00 0.00 0.00 60 1015.1
20260903084409 85 223 2.0 3.0 0.00 0.00 0.00 59 1015.1
20260903083408 84 219 2.0 3.0 0.00 0.00 0.00 58 1015.1
20260903082908 84 225 1.0 3.0 0.00 0.00 0.00 60 1015.1
20260903082409 84 222 2.0 3.0 0.00 0.00 0.00 60 1015.1
20260903081908 83 255 2.0 3.0 0.00 0.00 0.00 59 1015.0
20260903081408 83 235 2.0 3.0 0.00 0.00 0.00 60 1015.0
20260903080909 83 249 2.0 3.0 0.00 0.00 0.00 60 1015.0
20260903080409 83 259 2.0 3.0 0.00 0.00 0.00 61 1015.0
20260903075908 82 249 2.0 3.0 0.00 0.00 0.00 62 1015.0
20260903075408 82 256 2.0 3.0 0.00 0.00 0.00 61 1015.0
20260903074908 82 248 2.0 3.0 0.00 0.00 0.00 62 1015.0
20260903074408 82 275 2.0 3.0 0.00 0.00 0.00 61 1015.0
20260903073909 82 245 2.0 3.0 0.00 0.00 0.00 62 1015.0
20260903073407 82 271 2.0 3.0 0.00 0.00 0.00 63 1015.0
20260903072908 81 246 2.0 3.0 0.00 0.00 0.00 62 1015.0
20260903072410 81 271 2.0 3.0 0.00 0.00 0.00 63 1015.0
20260903071909 81 271 3.0 3.0 0.00 0.00 0.00 62 1014.9
20260903071408 81 258 2.0 3.0 0.00 0.00 0.00 63 1015.0
20260903070909 81 269 2.0 3.0 0.00 0.00 0.00 63 1014.9
20260903070409 81 257 2.0 3.0 0.00 0.00 0.00 64 1014.9
20260903065409 81 254 2.0 3.0 0.00 0.00 0.00 64 1014.9
20260903064915 80 257 2.0 3.0 0.00 0.00 0.00 64 1014.8
20260903064410 80 260 2.0 3.0 0.00 0.00 0.00 65 1014.8
20260903063909 80 272 3.0 3.0 0.00 0.00 0.00 64 1014.8
20260903063409 80 257 2.0 3.0 0.00 0.00 0.00 65 1014.9
20260903062908 80 270 3.0 3.0 0.00 0.00 0.00 65 1014.8
20260903062408 80 267 3.0 3.0 0.00 0.00 0.00 65 1014.9
20260903061410 80 276 2.0 3.0 0.00 0.00 0.00 66 1015.0
20260903060910 80 255 2.0 3.0 0.00 0.00 0.00 66 1015.0
20260903060409 80 255 1.0 3.0 0.00 0.00 0.00 67 1015.0
20260903055409 80 270 2.0 3.0 0.00 0.00 0.00 67 1015.0
20260903054411 80 259 3.0 3.0 0.00 0.00 0.00 68 1015.0
20260903053909 80 264 2.0 3.0 0.00 0.00 0.00 69 1014.9
20260903052909 80 280 2.0 3.0 0.00 0.00 0.00 72 1014.8
20260903052410 80 245 2.0 3.0 0.00 0.00 0.00 72 1014.8
20260903051909 80 308 1.0 3.0 0.00 0.00 0.00 72 1014.8
20260903050908 80 228 2.0 3.0 0.00 0.00 0.00 72 1014.8
20260903050409 80 241 2.0 3.0 0.00 0.00 0.00 72 1014.8
20260903045910 80 247 2.0 3.0 0.00 0.00 0.00 72 1014.8
20260903045409 79 277 1.0 3.0 0.00 0.00 0.00 72 1014.8
20260903044908 79 289 2.0 3.0 0.00 0.00 0.00 72 1014.8
20260903044409 79 262 2.0 3.0 0.00 0.00 0.00 71 1014.8
20260903043908 80 271 1.0 3.0 0.00 0.00 0.00 71 1014.7
20260903043408 80 277 2.0 3.0 0.00 0.00 0.00 71 1014.7
20260903042908 80 281 1.0 3.0 0.00 0.00 0.00 71 1014.7
20260903042408 80 285 2.0 3.0 0.00 0.00 0.00 71 1014.7
20260903041908 80 289 2.0 3.0 0.00 0.00 0.00 70 1014.7
20260903041408 80 278 2.0 3.0 0.00 0.00 0.00 70 1014.6
20260903040909 80 313 2.0 3.0 0.00 0.00 0.00 69 1014.7
20260903040409 80 306 2.0 3.0 0.00 0.00 0.00 69 1014.6
20260903034909 80 290 1.0 3.0 0.00 0.00 0.00 68 1014.6
20260903034409 80 277 2.0 3.0 0.00 0.00 0.00 68 1014.5
20260903033908 80 287 1.0 3.0 0.00 0.00 0.00 68 1014.5
20260903033410 80 260 2.0 3.0 0.00 0.00 0.00 68 1014.5
20260903032909 80 246 1.0 3.0 0.00 0.00 0.00 68 1014.5
20260903032407 80 265 2.0 3.0 0.00 0.00 0.00 69 1014.6
20260903031909 80 264 2.0 3.0 0.00 0.00 0.00 70 1014.6
20260903031409 80 260 1.0 3.0 0.00 0.00 0.00 69 1014.6
20260903030909 80 324 0.0 2.0 0.00 0.00 0.00 69 1014.6
20260903030409 80 330 0.0 2.0 0.00 0.00 0.00 69 1014.6
20260903025910 80 34 1.0 3.0 0.00 0.00 0.00 68 1014.6
20260903024909 80 16 0.0 0.0 0.00 0.00 0.00 67 1014.6
20260903023909 80 138 0.0 2.0 0.00 0.00 0.00 67 1014.7
20260903023408 79 138 0.0 1.0 0.00 0.00 0.00 66 1014.8
20260903022908 79 137 1.0 2.0 0.00 0.00 0.00 67 1014.8
20260903022408 80 133 0.0 2.0 0.00 0.00 0.00 68 1014.8
20260903021909 80 108 0.0 2.0 0.00 0.00 0.00 67 1014.8
20260903021409 81 91 1.0 3.0 0.00 0.00 0.00 65 1014.7
20260903020909 81 74 0.0 0.0 0.00 0.00 0.00 64 1014.8
20260903015908 81 310 0.0 0.0 0.00 0.00 0.00 63 1014.8
20260903015408 80 312 0.0 0.0 0.00 0.00 0.00 63 1014.8
20260903014908 80 296 0.0 0.0 0.00 0.00 0.00 65 1014.9
20260903014408 80 296 0.0 0.0 0.00 0.00 0.00 65 1014.9
20260903013908 81 296 0.0 0.0 0.00 0.00 0.00 65 1014.8
20260903012909 81 296 0.0 0.0 0.00 0.00 0.00 66 1014.9
20260903012409 81 296 0.0 0.0 0.00 0.00 0.00 66 1014.9
20260903011908 81 303 0.0 0.0 0.00 0.00 0.00 65 1014.9
20260903011410 81 309 0.0 0.0 0.00 0.00 0.00 67 1014.9
20260903010909 81 309 0.0 2.0 0.00 0.00 0.00 67 1014.9
20260903010409 81 296 1.0 3.0 0.00 0.00 0.00 67 1014.9
20260903005908 81 254 1.0 2.0 0.00 0.00 0.00 67 1014.9
20260903005409 81 240 1.0 3.0 0.00 0.00 0.00 66 1014.9
20260903004909 81 264 2.0 3.0 0.00 0.00 0.00 65 1014.9
20260903004409 81 278 2.0 3.0 0.00 0.00 0.00 66 1014.8
20260903003408 81 272 2.0 3.0 0.00 0.00 0.00 68 1014.9
20260903002908 81 265 2.0 3.0 0.00 0.00 0.00 67 1014.9
20260903002408 81 235 2.0 3.0 0.00 0.00 0.00 67 1014.9
20260903000908 82 255 2.0 3.0 0.00 0.00 0.00 61 1014.9
20260902235910 82 256 2.0 3.0 0.00 0.00 0.00 60 1014.9
20260902235408 83 259 1.0 2.0 0.00 0.00 0.00 58 1014.9
20260902233408 82 301 1.0 3.0 0.00 0.00 0.00 57 1014.9
20260902232908 82 250 1.0 3.0 0.00 0.00 0.00 57 1015.0
20260902232407 82 258 2.0 3.0 0.00 0.00 0.00 60 1015.0
20260902231909 82 250 2.0 3.0 0.00 0.00 0.00 63 1015.0
20260902231406 82 260 2.0 3.0 0.00 0.00 0.00 61 1015.1